Flag for Spain Weather past 2 weeks in Sevilla, Spain

Now
50 °F

Clear.


Feels Like: 45 °F
Forecast: 46 / 71 °F
Wind: 14 mph from East

Location: Sevilla / San Pablo

Current Time: Mar 6, 2015 at 7:00:02 AM

Latest Report: Mar 6, 2015 at 6:30 AM


Visibility: 10 mi

Pressure: 30.30 "Hg

Humidity: 28%

Dew point: 18 °F

Location of SevillaLocation

Historic Weather in Sevilla — Graph

°F

Sevilla temperature yesterday

Maximum temperature yesterday: 66 °F (at 4:00 PM)
Minimum temperature yesterday: 50 °F (at 7:30 AM)
Average temperature yesterday: 58 °F

Past Weeks' High & Low Weather Summary

 TemperatureHumidityPressure
High73 °F (Mar 2, 3:30 PM)100% (Feb 21, 9:30 AM)30.51 "Hg (Feb 21, 9:30 AM)
Low39 °F (Feb 20, 5:30 AM)27% (Mar 5, 1:00 PM)29.83 "Hg (Feb 21, 3:00 PM)
Average56 °F68%30.25 "Hg
* Reported Feb 19 6:00 AM — Mar 6 6:00 AM, Sevilla, Weather by CustomWeather, © 2015

Note: Actual official high and low records may vary slightly from our data, if they occured in-between our weather recording intervals... More about our weather records

Advertising

Sevilla weather history for previous 24 hours

 ConditionsComfort  
Time TempWeatherWind HumidityBarometerVisibility
6:00 AM
Fri, Mar 6
45 °FPassing clouds.8 mph37%30.30 "HgN/A
5:30 AM50 °FClear.15 mph28%30.30 "Hg10 mi
5:00 AM52 °FPassing clouds.15 mph28%30.30 "HgN/A
4:30 AM50 °FClear.16 mph32%30.30 "Hg10 mi
4:00 AM50 °FClear.14 mph37%30.30 "Hg10 mi
3:30 AM50 °FClear.13 mph40%30.30 "Hg10 mi
1:00 AM52 °FClear.10 mph35%30.33 "Hg10 mi
12:30 AM52 °FPassing clouds.12 mph32%30.33 "HgN/A
12:00 AM52 °FClear.12 mph30%30.33 "Hg10 mi
11:30 PM
Thu, Mar 5
52 °FPassing clouds.10 mph28%30.33 "HgN/A
11:00 PM52 °FClear.10 mph30%30.33 "Hg10 mi
10:30 PM54 °FClear.13 mph30%30.33 "Hg10 mi
10:00 PM54 °FClear.9 mph30%30.33 "Hg10 mi
9:30 PM55 °FClear.9 mph33%30.33 "Hg10 mi
9:00 PM55 °FPassing clouds.10 mph41%30.33 "HgN/A
8:30 PM57 °FPassing clouds.10 mph44%30.30 "HgN/A
8:00 PM57 °FClear.8 mph48%30.30 "Hg10 mi
7:30 PM59 °FPassing clouds.7 mph45%30.30 "HgN/A
7:00 PM61 °FPassing clouds.12 mph39%30.30 "HgN/A
6:30 PM63 °FPassing clouds.12 mph39%30.30 "HgN/A
6:00 PM64 °FPassing clouds.12 mph37%30.30 "HgN/A
5:30 PM64 °FPassing clouds.14 mph40%30.27 "HgN/A
5:00 PM64 °FPassing clouds.14 mph43%30.27 "HgN/A
4:30 PM64 °FSunny.16 mph43%30.30 "Hg10 mi
4:00 PM66 °FPassing clouds.13 mph40%30.30 "HgN/A
3:30 PM64 °FSunny.20 mph40%30.30 "Hg10 mi
3:00 PM64 °FSunny.20 mph32%30.30 "Hg10 mi
2:30 PM64 °FPassing clouds.18 mph32%30.33 "HgN/A
2:00 PM63 °FSunny.22 mph34%30.33 "Hg10 mi
1:30 PM63 °FSunny.21 mph30%30.36 "Hg10 mi
1:00 PM61 °FSunny.24 mph27%30.36 "Hg10 mi
12:30 PM59 °FSunny.28 mph29%30.39 "Hg10 mi
12:00 PM57 °FSunny.26 mph31%30.39 "Hg10 mi
11:30 AM57 °FPassing clouds.25 mph31%30.39 "HgN/A
11:00 AM55 °FSunny.25 mph31%30.39 "Hg10 mi
10:30 AM54 °FSunny.28 mph33%30.42 "Hg10 mi
10:00 AM54 °FSunny.29 mph33%30.39 "Hg10 mi
9:30 AM52 °FSunny.25 mph35%30.39 "Hg10 mi
9:00 AM50 °FSunny.24 mph37%30.39 "Hg10 mi
8:30 AM50 °FSunny.18 mph35%30.39 "Hg10 mi
8:00 AM50 °FSunny.20 mph32%30.39 "Hg10 mi
7:30 AM50 °FPassing clouds.18 mph32%30.39 "HgN/A
7:00 AM52 °FClear.20 mph30%30.36 "Hg10 mi
Weather by CustomWeather, © 2015

See weather overviewHow to use our weather pages